Weather History for Baker, MT

Change the Weather History Date:

Monday, December 10, 2012

  Actual Average Record
Temperature  
Mean Temperature 22 °F -  
Max Temperature 28 °F 27 °F 51 °F (2002)
Min Temperature 16 °F 31 °F -20 °F (2000)
Degree Days  
Heating Degree Days 43    
Moisture  
Dew Point 17 °F    
Average Humidity 69    
Maximum Humidity 81    
Minimum Humidity 57    
Precipitation  
Precipitation 0.00 in - - ()
Sea Level Pressure  
Sea Level Pressure 29.83 in    
Wind  
Wind Speed 17 mph (WNW)    
Max Wind Speed 26 mph    
Max Gust Speed 36 mph    
Visibility 8 miles    
Events Snow    
Averages and records for this station are not official NWS values.
T = Trace of Precipitation, MM = Missing Value Source: NWS Daily Summary

Daily Weather History Graph

Daily Weather History Graph

Search for Another Location

Airport:

Trip Planner

Search our weather history database for the weather conditions in past years. The results will help you decide how hot, cold, wet, or windy it might be!

Date:

Astronomy

Dec. 10, 2012 Rise Set
Actual Time 7:29 AM MST 4:10 PM MST
Civil Twilight 6:55 AM MST 4:45 PM MST
Nautical Twilight 6:16 AM MST 5:23 PM MST
Astronomical Twilight 5:40 AM MST 5:59 PM MST
Moon 4:09 AM MST (12/10) 2:06 PM MST (12/10)
Length of Visible Light 9h 50m
Length of Day
8h 40m
Waning Crescent, 10% of the Moon is Illuminated
Dec 10
Waning Crescent
Dec 13
New
Dec 19
First Quarter
Dec 28
Full
Jan 4
Last Quarter

Hourly Weather History & Observations

Time (MST) Temp. Windchill Dew Point Humidity Pressure Visibility Wind Dir Wind Speed Gust Speed Precip Events Conditions
12:51 AM 16.0 °F 1.7 °F 3.9 °F 59% 29.96 in 10.0 mi SSW 13.8 mph - N/A   Scattered Clouds
1:51 AM 18.0 °F 3.6 °F 5.0 °F 57% 29.92 in 10.0 mi SW 15.0 mph 23.0 mph N/A   Overcast
2:51 AM 19.0 °F 6.1 °F 6.1 °F 57% 29.89 in 10.0 mi WSW 12.7 mph - N/A   Overcast
3:51 AM 19.9 °F 10.1 °F 8.1 °F 60% 29.86 in 10.0 mi West 8.1 mph - N/A   Overcast
4:51 AM 21.9 °F 10.4 °F 9.0 °F 58% 29.86 in 10.0 mi West 11.5 mph 20.7 mph N/A   Overcast
5:51 AM 21.9 °F 7.8 °F 10.0 °F 60% 29.83 in 10.0 mi WSW 17.3 mph - N/A   Overcast
6:51 AM 21.9 °F 7.3 °F 12.0 °F 66% 29.82 in 10.0 mi WSW 18.4 mph - N/A   Overcast
7:51 AM 21.9 °F 7.8 °F 12.0 °F 66% 29.83 in 10.0 mi West 17.3 mph - N/A   Scattered Clouds
8:51 AM 26.1 °F 14.5 °F 16.0 °F 66% 29.84 in 9.0 mi West 13.8 mph - 0.00 in Snow Light Snow
9:10 AM 28.4 °F 15.8 °F 17.6 °F 64% 29.72 in 9.0 mi WNW 18.4 mph 27.6 mph 0.00 in Snow Light Snow
9:20 AM 28.4 °F 15.8 °F 17.6 °F 64% 29.72 in 9.0 mi WNW 18.4 mph 26.5 mph 0.00 in Snow Light Snow
9:51 AM 28.9 °F 16.9 °F 18.0 °F 64% 29.85 in 9.0 mi WNW 17.3 mph 27.6 mph 0.00 in Snow Light Snow
10:08 AM 28.4 °F 15.1 °F 19.4 °F 69% 29.74 in 9.0 mi WNW 20.7 mph 29.9 mph 0.00 in Snow Light Snow
10:51 AM 28.9 °F 15.8 °F 19.0 °F 67% 29.85 in 9.0 mi WNW 20.7 mph 31.1 mph 0.00 in Snow Light Snow
11:51 AM 28.9 °F 14.3 °F 19.0 °F 67% 29.84 in 9.0 mi WNW 26.5 mph 35.7 mph 0.00 in Snow Light Snow
12:32 PM 26.6 °F 12.0 °F 17.6 °F 69% 29.75 in 9.0 mi NW 23.0 mph 33.4 mph 0.00 in Snow Light Snow
12:51 PM 28.0 °F 13.6 °F 17.1 °F 63% 29.85 in 9.0 mi NW 24.2 mph 32.2 mph 0.00 in Snow Light Snow
1:24 PM 28.4 °F 14.1 °F 17.6 °F 64% 29.75 in 9.0 mi NW 24.2 mph 33.4 mph 0.00 in Snow Light Snow
1:51 PM 28.9 °F 15.8 °F 18.0 °F 64% 29.85 in 9.0 mi NW 20.7 mph 34.5 mph 0.00 in Snow Light Snow
2:29 PM 28.4 °F 13.8 °F 19.4 °F 69% 29.76 in 3.0 mi WNW 25.3 mph 34.5 mph 0.00 in Snow Light Snow
2:31 PM 28.4 °F 13.8 °F 19.4 °F 69% 29.76 in 2.5 mi WNW 25.3 mph 34.5 mph 0.00 in Snow Light Snow
2:37 PM 26.6 °F 12.0 °F 19.4 °F 74% 29.76 in 1.8 mi WNW 23.0 mph 34.5 mph 0.00 in Snow Light Snow
2:44 PM 26.6 °F 13.4 °F 19.4 °F 74% 29.77 in 2.5 mi WNW 18.4 mph 34.5 mph 0.00 in Snow Light Snow
2:49 PM 28.4 °F 14.4 °F 19.4 °F 69% 29.77 in 4.0 mi WNW 23.0 mph 29.9 mph 0.00 in Snow Light Snow
2:51 PM 28.0 °F 14.6 °F 19.9 °F 72% 29.87 in 5.0 mi WNW 20.7 mph 29.9 mph 0.00 in Snow Light Snow
3:08 PM 28.4 °F 14.1 °F 19.4 °F 69% 29.78 in 9.0 mi WNW 24.2 mph 29.9 mph 0.00 in Snow Light Snow
3:51 PM 28.0 °F 15.7 °F 19.0 °F 69% 29.89 in 9.0 mi WNW 17.3 mph 27.6 mph 0.00 in Snow Light Snow
4:00 PM 28.4 °F 16.2 °F 19.4 °F 69% 29.80 in 9.0 mi WNW 17.3 mph 25.3 mph 0.00 in Snow Light Snow
4:31 PM 26.6 °F 13.4 °F 19.4 °F 74% 29.80 in 9.0 mi WNW 18.4 mph 25.3 mph 0.00 in Snow Light Snow
4:51 PM 26.1 °F 14.5 °F 19.0 °F 75% 29.91 in 9.0 mi WNW 13.8 mph - 0.00 in Snow Light Snow
5:51 PM 24.1 °F 13.7 °F 18.0 °F 77% 29.91 in 10.0 mi West 10.4 mph - 0.00 in   Overcast
6:51 PM 21.0 °F 8.6 °F 16.0 °F 81% 29.91 in 10.0 mi West 12.7 mph - N/A   Overcast
7:51 PM 26.1 °F 14.5 °F 19.0 °F 75% 29.89 in 9.0 mi WNW 13.8 mph - 0.00 in Snow Light Snow
8:10 PM 26.6 °F 15.2 °F 19.4 °F 74% 29.79 in 9.0 mi WNW 13.8 mph - 0.00 in Snow Light Snow
8:41 PM 24.8 °F 14.0 °F 19.4 °F 80% 29.80 in 9.0 mi WNW 11.5 mph - 0.00 in Snow Light Snow
8:51 PM 26.1 °F 15.0 °F 19.9 °F 78% 29.90 in 9.0 mi WNW 12.7 mph - 0.00 in Snow Light Snow
9:22 PM 26.6 °F 15.7 °F 19.4 °F 74% 29.80 in 9.0 mi West 12.7 mph - 0.00 in   Overcast
9:51 PM 27.0 °F 16.1 °F 19.0 °F 72% 29.88 in 10.0 mi WNW 12.7 mph - 0.00 in   Overcast
10:51 PM 26.1 °F 15.6 °F 18.0 °F 71% 29.88 in 10.0 mi West 11.5 mph - 0.00 in   Mostly Cloudy
11:51 PM 23.0 °F 11.7 °F 16.0 °F 74% 29.89 in 10.0 mi West 11.5 mph - N/A   Mostly Cloudy